Location: Amanico Ergina Village
(37.7824°N, 122.4366°W)
Time: 21:04:58
(UTC+00:00)

BREEZE-M DEB (TANK) - Pass Details

Date: 29 October 2020
Orbit: 312 x 13937 km, 49.6° (Epoch: 24 November)

Event Time Altitude Azimuth Distance (km) Brightness Sun altitude
Exits shadow 12:27:15 45° 313° (NW) 1,385 4.4 -25.3°
Maximum altitude 12:29:20 84° 37° (NE) 1,344 4.6 -24.9°
Drops below altitude 10° 12:48:31 10° 128° (SE) 8,168 9.5 -21.1°
Sets 13:00:30 0° 130° (SE) 11,703 10.4 -18.7°
